Regional Weather Roundup
Issued by NWS

Home | Current Version | Previous Version | Graphics & Text | Print | Product List | Glossary On
Versions: 1 2 3 4 5 6 7 8 9 10 11 12 13 14 15 16 17 18 19 20 21 22 23 24 25 26 27 28 29 30 31 32 33 34 35 36 37 38 39 40 41 42 43 44 45 46 47 48 49 50
670
ASUS43 KOAX 270502
RWRNE

WEATHER ROUNDUP FOR NEBRASKA
NATIONAL WEATHER SERVICE OMAHA NE
1200 AM CDT TUE JUN 27 2017

NOTES: SATELLITE DATA IS BEING USED TO AUGMENT CLOUD COVER ABOVE
       12000 FEET.
       "FAIR" INDICATES FEW OR NO CLOUDS BELOW 12,000 FEET WITH NO
       SIGNIFICANT WEATHER AND/OR OBSTRUCTIONS TO VISIBILITY.

  * THESE STATIONS DO NOT REPORT WEATHER SUCH AS RAIN...SNOW OR FOG.

NEZ001>004-019>022-054>056-270600-
NEBRASKA PANHANDLE

CITY           SKY/WX    TMP DP  RH WIND       PRES   REMARKS
SCOTTSBLUFF    CLEAR     67  43  41 SE15      30.08S
ALLIANCE       CLEAR     62  41  46 SE15      30.09S
CHADRON        CLEAR     70  37  29 S18G36    30.01F
GORDON         FAIR      58  41  54 SE8       30.08F
KIMBALL        CLEAR     64  57  80 SE15      30.15S
SIDNEY         CLEAR     63  54  72 SE16      30.14S
$$

NEZ057>060-069>072-079>082-270600-
SOUTHWEST NEBRASKA

CITY           SKY/WX    TMP DP  RH WIND       PRES   REMARKS
NORTH PLATTE   CLEAR     56  50  80 E8        30.13S
IMPERIAL       CLEAR     61  55  81 SE8       30.13R
LEXINGTON      CLEAR     62  51  68 E9        30.13F
MCCOOK         CLEAR     64  58  80 E8        30.12S
OGALLALA       CLEAR     64  47  54 SE6       30.13S
$$

NEZ005>010-023>029-035>040-094-270600-
NORTH CENTRAL NEBRASKA

CITY           SKY/WX    TMP DP  RH WIND       PRES   REMARKS
VALENTINE      CLEAR     62  38  40 SE13      30.10S
AINSWORTH      CLEAR     56  43  60 SE7       30.12S
BROKEN BOW     CLEAR     57  47  69 SE7       30.14S
O`NEILL        CLEAR     58  45  62 SE6       30.14F
ORD            CLEAR     52  46  80 CALM      30.13S
THEDFORD       CLEAR     58  43  57 SE7       30.13F
$$

NEZ041-046>049-061>064-073>077-083>087-270600-
SOUTH CENTRAL NEBRASKA

CITY           SKY/WX    TMP DP  RH WIND       PRES   REMARKS
GRAND ISLAND   PTCLDY    59  52  77 E6        30.15S
AURORA         CLEAR     57  51  81 E7        30.15S
HASTINGS       CLEAR     63  59  87 SE6       30.16R
HEBRON         CLEAR     60  59  97 CALM      30.15R
HOLDREGE       CLEAR     60  57  90 E9        30.13S
KEARNEY *      CLEAR     57  50  77 E7        30.15S
YORK           CLEAR     57  50  77 E8        30.15S
$$

NEZ011>018-030>034-042>045-270600-
NORTHEAST NEBRASKA

CITY           SKY/WX    TMP DP  RH WIND       PRES   REMARKS
NORFOLK        CLEAR     54  44  69 SE5       30.14F
ALBION         CLEAR     56  43  62 CALM      30.15S
BLAIR          CLEAR     61  47  59 E5        30.15R
FREMONT        CLEAR     59  50  72 CALM      30.15S
TEKAMAH        CLEAR     54  46  74 NW6       30.14S
WAYNE          CLEAR     50  46  84 CALM      30.15S
$$

NEZ050>053-065>068-078-088>093-270600-
SOUTHEAST NEBRASKA

CITY           SKY/WX    TMP DP  RH WIND       PRES   REMARKS
LINCOLN        CLEAR     60  52  74 E6        30.15R
OMAHA EPPLEY   CLEAR     59  50  72 NW5       30.14S
BEATRICE       CLEAR     61  60  96 CALM      30.14S
FALLS CITY     CLEAR     59  57  93 CALM      30.14R
NEBRASKA CITY  CLEAR     61  61 100 SW3       30.15R
PLATTSMOUTH    CLEAR     62  52  70 E6        30.15S
$$

NEZ044-045-051>053-067-270600-
OMAHA AREA

CITY           SKY/WX    TMP DP  RH WIND       PRES   REMARKS
OMAHA EPPLEY   CLEAR     59  50  72 NW5       30.14S
BLAIR          CLEAR     61  47  59 E5        30.15R
FREMONT        CLEAR     59  50  72 CALM      30.15S
MILLARD        CLEAR     61  53  75 CALM      30.14S
OFFUTT AFB     CLEAR     60  52  73 E5        30.14R
PLATTSMOUTH    CLEAR     62  52  70 E6        30.15S
WAHOO          FAIR      56  48  74 NE3       30.15R
$$




USA.gov is the U.S. government's official web portal to all federal, state and local government web resources and services.